Location: Cenon
(46.7743°N, 0.5370°E)
Time: 01:04:56
(UTC+00:00)

Daily predictions for brighter satellites

Satellite Brightness Start Highest point End
(mag) Time Altitude Azimuth Time Altitude Azimuth Time Altitude Azimuth
BREEZE-M DEB (TANK) 4.5 00:01:01 10° WNW 00:05:07 86° NNE 00:20:48 10° ESE
Cosmos 1378 Rocket 4.4 00:04:16 31° WSW 00:05:47 43° WNW 00:10:00 10° N
Cosmos 1674 Rocket 4.1 00:05:41 35° SW 00:07:04 49° WNW 00:11:17 10° N
Cosmos 2151 Rocket 4.4 00:05:07 10° NNW 00:09:10 37° W 00:10:14 32° WSW
Okean 2 Rocket 4.0 00:10:48 10° NNW 00:14:55 36° W 00:16:03 31° WSW
Cosmos 1898 Rocket 3.8 00:13:33 37° SSE 00:15:12 52° ESE 00:20:12 10° NNE
ALOS 2 3.9 00:17:02 24° WSW 00:17:58 26° W 00:21:39 10° NW
GEOS 3 Rocket 4.1 00:15:58 10° NE 00:20:53 43° ESE 00:22:15 36° SSE
Cosmos 2074 Rocket 4.3 00:21:27 29° SW 00:24:33 59° WNW 00:30:43 10° N
In-Cosmos 22 Rocket 4.5 00:27:54 33° SSE 00:30:29 64° E 00:36:16 10° NNE
Cosmos 1328 4.4 00:29:42 38° WSW 00:30:33 45° WNW 00:34:19 10° N
CZ-2D R/B 4.4 00:30:03 10° ENE 00:32:09 12° E 00:34:12 10° ESE
Helios 1A Rocket 4.1 00:32:16 21° ESE 00:34:06 33° ENE 00:37:33 10° N
Cosmos 1606 3.7 00:30:53 10° N 00:34:14 37° ENE 00:35:21 29° ESE
Cosmos 1869 4.0 00:34:46 10° N 00:38:18 42° ENE 00:39:31 31° ESE
Cosmos 2341 Rocket 4.2 00:36:54 29° SSE 00:40:04 62° E 00:46:12 10° NNE
CENTAUR R/B 2.9 00:35:45 18° WSW 00:40:07 61° NW 00:47:16 10° NE
SL-16 R/B 2.5 00:35:36 10° NW 00:41:06 52° WSW 00:43:10 35° SSW
Cosmos 1461 2.6 00:43:01 55° SSW 00:43:49 79° SE 00:47:43 10° NE
Cosmos 2237 Rocket 4.0 00:41:38 10° WNW 00:44:45 15° W 00:46:00 14° WSW
Cosmos 1680 Rocket 3.6 00:43:20 10° NNW 00:48:34 74° ENE 00:51:38 25° SSE
Cosmos 2228 4.1 00:45:14 10° N 00:49:18 39° ENE 00:51:39 21° SE
Cosmos 292 Rocket 4.0 00:48:11 33° SW 00:50:11 60° WNW 00:54:58 10° NNE
Cosmos 2227 Rocket 3.5 00:46:33 14° WSW 00:50:53 34° NW 00:56:02 10° NNE
Cosmos 2082 3.7 00:48:25 32° SW 00:51:08 79° WNW 00:56:47 10° NNE
Cosmos 1943 3.4 00:46:19 10° NNW 00:51:56 67° ENE 00:56:23 16° SE
CRYOSAT 2 4.4 00:47:09 10° N 00:52:05 75° E 00:54:08 35° S
Cosmos 2112 Rocket 4.2 00:47:23 10° NNW 00:52:34 68° ENE 00:55:57 22° SE
Aureole 1 Rocket 3.5 00:53:40 33° WSW 00:55:02 49° WNW 00:59:38 10° NNE
Resurs 1-4 Rocket 3.9 00:55:43 10° NE 00:59:51 23° E 01:03:21 12° SE
USA 238 DEB 4.1 00:59:38 27° SSE 01:02:27 43° ESE 01:08:39 10° NE
USA 238 4.1 00:59:40 27° SSE 01:02:30 42° ESE 01:08:41 10° NE
BREEZE-M DEB (TANK) 2.2 00:59:15 10° WNW 01:04:15 48° SW 01:04:15 48° SW
BlueWalker 3 3.8 01:05:36 10° NW 01:09:00 32° N 01:12:24 10° ENE
H-2A R/B 3.6 01:06:07 10° N 01:09:34 25° WNW 01:11:28 18° WSW
Cosmos 1818 3.7 01:04:36 10° NW 01:09:57 55° WSW 01:12:28 30° S
Cosmos 2218 Rocket 4.0 01:07:06 28° S 01:10:35 81° E 01:16:46 10° N
Cosmos 2366 rocket 4.0 01:08:29 28° S 01:11:59 86° E 01:18:15 10° N
Cosmos 1544 Rocket 3.5 01:08:22 10° N 01:12:50 87° W 01:14:43 34° S
Cosmos 372 Rocket 4.4 01:15:43 27° SW 01:18:24 56° WNW 01:23:33 10° NNE
Cosmos 2219 4.3 01:14:58 16° WSW 01:18:56 36° NW 01:24:06 10° NNE
Cosmos 494 Rocket 4.5 01:19:56 10° NNW 01:25:08 61° ENE 01:30:20 10° SE
Cosmos 1975 Rocket 4.1 01:25:49 24° WSW 01:27:34 34° WNW 01:31:35 10° N
Cosmos 921 Rocket 3.7 01:24:01 10° N 01:28:09 51° ENE 01:31:45 13° SE
Cosmos 2227 4.2 01:26:28 28° SSW 01:29:37 84° ESE 01:35:26 10° NNE
IDEFIX/ARIANE 42P 2.9 01:29:21 10° NNE 01:34:31 58° E 01:37:48 22° S
Cosmos 1844 4.3 01:32:48 22° S 01:36:15 50° ESE 01:41:50 10° NE
Cosmos 2263 Rocket 3.3 01:33:26 16° WSW 01:37:24 36° NW 01:42:32 10° NNE
NOSS 3-2 (A) 4.4 01:33:05 11° WSW 01:37:58 40° NW 01:44:01 10° NNE
MSX 4.2 01:34:07 10° NNE 01:39:45 57° E 01:43:48 19° S
SL-8 Rocket 4.3 01:37:14 24° SW 01:40:51 53° WNW 01:46:55 10° N
NOSS 3-2 (C) 3.5 01:42:25 20° WSW 01:46:09 63° NW 01:52:28 10° NE
Cosmos 1937 Rocket 4.4 01:44:19 19° WSW 01:47:36 38° WNW 01:52:30 10° N
Cosmos 1606 Rocket 4.0 01:43:39 10° N 01:48:04 60° ENE 01:51:46 14° SSE
Meteor 2-13 Rocket 4.4 01:44:08 10° N 01:50:15 81° W 01:55:06 17° S
CZ-2C R/B 3.6 01:49:18 10° NNE 01:54:31 53° E 01:58:24 16° S
Cosmos 1844 Rocket 2.7 01:51:37 23° SSW 01:55:09 78° ESE 02:00:45 10° NNE
Cosmos 1536 Rocket 3.8 01:54:56 26° SSW 01:57:15 59° WNW 02:01:38 10° N
SL-16 R/B 3.5 01:52:00 10° SE 01:57:57 49° ENE 02:03:55 10° N
Cosmos 1867 3.6 01:55:11 23° SW 01:58:44 83° NW 02:04:15 10° NE
MOZ.5/SAFIR/RUBIN 5/SL-8 4.2 01:59:17 24° SSW 02:01:41 44° W 02:06:07 10° NNW
Cosmos 1726 Rocket 4.0 01:57:32 10° N 02:01:57 63° E 02:06:13 10° SSE
Cosmos 1727 Rocket 4.1 01:58:15 10° NNW 02:04:33 67° W 02:09:39 16° S
H-2A R/B 3.3 02:03:34 10° NNE 02:07:35 81° WNW 02:10:00 23° SSW
Helios 1A Rocket 4.2 02:07:36 19° WSW 02:08:29 20° W 02:11:22 10° NW
Cosmos 1606 4.5 02:06:28 10° NW 02:08:35 15° W 02:09:18 14° W
Cosmos 1000 Rocket 4.5 02:05:43 10° N 02:12:01 81° W 02:18:00 11° S
CZ-2D R/B 2.1 02:07:36 10° NNE 02:12:58 86° ESE 02:17:02 17° SSW
ALOS 3.5 02:10:45 10° NNE 02:15:01 35° E 02:19:14 10° SSE
ADEOS II 2.4 02:11:31 10° NNE 02:16:45 64° ESE 02:21:20 13° S
Cosmos 1437 Rocket 3.3 02:16:19 22° SW 02:18:21 42° WNW 02:21:57 10° N
CZ-2C R/B 2.7 02:15:44 14° S 02:20:16 61° W 02:25:40 10° NNW
BREEZE-M DEB (TANK) 4.3 02:23:34 13° S 02:23:34 13° S 02:24:31 10° SSE
Alouette 2 Rocket 3.8 02:19:17 13° S 02:22:55 55° E 02:26:26 10° NNE
Cosmos 1607 4.0 02:19:14 10° NW 02:25:31 59° WSW 02:31:39 10° SSE
AQUA 4.2 02:21:05 10° NNE 02:25:47 61° ESE 02:30:10 12° S
ASTEX 1 3.4 02:21:31 10° S 02:26:23 86° E 02:31:16 10° N
FENGYUN 3A 3.7 02:23:37 10° NNE 02:29:01 80° ESE 02:33:58 12° S
ATLAS 5 CENTAUR R/B 2.7 02:26:52 12° SSE 02:29:11 23° ESE 02:31:58 10° ENE
Cosmos 1603 4.4 02:25:05 10° NW 02:30:15 35° WSW 02:34:48 13° SSW
Cosmos 1812 2.5 02:27:19 10° N 02:30:55 85° E 02:34:28 10° S
Resurs 1-4 Rocket 2.4 02:34:48 10° N 02:39:57 54° WNW 02:44:25 14° SW
NPP 4.3 02:36:00 10° N 02:41:04 43° WNW 02:45:30 13° SW
Timation 2 Rocket 4.1 02:37:21 13° SSW 02:43:16 84° ESE 02:49:37 10° NNE
Cosmos 2058 2.9 02:40:06 11° S 02:43:58 81° E 02:48:04 10° N
Cosmos 1892 Rocket 3.7 02:43:30 14° SSW 02:47:16 61° WNW 02:51:42 10° N
BlueWalker 3 2.0 02:43:47 10° WNW 02:47:32 80° NNE 02:51:17 10° ESE
SAR-Lupe-4 4.2 02:45:36 10° NNE 02:49:05 52° E 02:52:34 10° S
Cosmos 724 4.5 02:44:04 10° NW 02:49:37 48° WSW 02:55:12 10° S
Meteor 2-19 Rocket 4.5 02:43:28 10° N 02:49:41 86° W 02:55:51 10° S
Cosmos 2058 Rocket 3.0 02:46:08 10° NNW 02:50:35 77° W 02:54:56 10° S
USA 238 DEB 4.3 02:47:14 10° WSW 02:53:18 48° NW 02:59:57 10° NE
USA 238 4.2 02:47:15 10° WSW 02:53:20 49° NW 03:00:00 10° NE
NOSS 2-2 (C) 3.2 02:56:39 12° SSW 02:59:32 53° SE 03:02:35 10° NE
Envisat 3.8 02:54:46 10° NNE 02:59:42 49° E 03:04:36 10° S
Cosmos 1544 2.1 02:57:59 11° S 03:00:25 83° W 03:03:02 10° N
Cosmos 1605 Rocket 4.0 02:56:42 10° S 03:02:53 88° E 03:09:02 10° N
Iridium 4 Rocket 3.3 03:02:24 10° N 03:06:57 72° W 03:11:54 10° S
Cosmos 1833 Rocket 3.1 03:01:47 10° NNW 03:07:26 69° ENE 03:13:03 10° SE
NOSS 2-3 (D) 4.1 03:04:33 10° SSW 03:07:59 41° ESE 03:11:43 10° NE
Cosmos 1626 Rocket 3.7 03:06:42 10° S 03:11:07 81° E 03:15:32 10° N
NOSS 2-2 (D) 3.6 03:08:38 10° SSW 03:11:50 44° SE 03:14:49 10° NE
IDEFIX/ARIANE 42P 4.1 03:09:36 10° N 03:13:38 23° WNW 03:17:38 10° WSW
Meteor 1-28 Rocket 4.0 03:11:26 10° SSW 03:14:33 29° W 03:17:43 10° NNW
Cosmos 1125 Rocket 4.1 03:11:01 10° SW 03:16:04 46° WNW 03:21:12 10° NNE
Cosmos-2242 3.1 03:12:12 10° N 03:16:32 87° ENE 03:20:49 10° S
Meteor 2-2 Rocket 4.4 03:11:20 10° N 03:17:00 81° ENE 03:22:38 10° SSE
METEOR-M 4.5 03:12:51 10° NNE 03:18:12 69° ESE 03:23:31 10° S
CZ-4 R/B 4.4 03:14:43 10° NNE 03:19:38 63° ESE 03:24:34 10° S
YAOGAN 6 4.0 03:17:03 10° NNE 03:19:57 31° E 03:22:49 10° SSE
Cosmos 1943 Rocket 4.2 03:22:47 10° SSE 03:27:18 25° ESE 03:31:51 10° NE
